SCP
0 0 0 0 0 0 0 0 0 0 0 0 0 0 0 0 0 0 0 0 0 0 0 0 0 0 0 0 0 0 0 0 0 0 0 0 0 0 0 0 0 0 0 0
0 0 0 0 0 0 0 0 0 0 0 0 0 0 0 0 0 0 0 0 0 0 0 0 0 0 0 0 0 0 0 0 0 0 0 0 0 0 0 0 0 0 0 0
0 0 0 0 0 0 0 0 0 0 0 0 0 0 0 0 0 0 0 0 0 0 0 0 0 0 0 0 0 0 0 0 0 0 0 0 0 0 0 0 0 0 0 0
0 0 0 0 0 0 0 0 0 0 0 0 0 0 0 0 0 0 0 0 0 0 0 0 0 0 0 0 0 0 0 0 0 0 0 0 0 0 0 0 0 0 0 0
0 0 0 0 0 0 0 0 0 0 0 0 0 0 0 0 0 0 0 0 0 0 0 0 0 0 0 0 0 0 0 0 0 0 0 0 0 0 0 0 0 0 0 0
0 0 0 0 0 0 0 0 0 0 0 0 0 0 0 0 0 0 0 0 0 0 0 0 0 0 0 0 0 0 0 0 0 0 0 0 0 0 0 0 0 0 0 0
0 0 0 0 0 0 0 0 0 0 0 0 0 0 0 0 0 0 0 0 0 0 0 0 0 0 0 0 0 0 0 0 0 0 0 0 0 0 0 0 0 0 0 0
0 0 0 0 0 0 0 0 0 0 0 0 0 0 0 0 0 0 0 0 0 0 0 0 0 0 0 0 0 0 0 0 0 0 0 0 0 0 0 0 0 0 0 0
0 0 0 0 0 0 0 0 0 0 0 0 0 0 0 0 0 0 0 0 0 0 0 0 0 0 0 0 0 0 0 0 0 0 0 0 0 0 0 0 0 0 0 0
0 0 0 0 0 0 0 0 0 0 0 0 0 0 0 0 0 0 0 0 0 0 0 0 0 0 0 0 0 0 0 0 0 0 0 0 0 0 0 0 0 0 0 0
0 0 0 0 0 0 0 0 0 0 0 0 0 0 0 0 0 0 0 0 0 0 0 0 0 0 0 0 0 0 0 0 0 0 0 0 0 0 0 0 0 0 0 0
0 0 0 0 0 0 0 0 0 0 0 0 0 0 0 0 0 0 0 0 0 0 0 0 0 0 0 0 0 0 0 0 0 0 0 0 0 0 0 0 0 0 0 0
0 0 0 0 0 0 0 0 0 0 0 0 0 0 0 0 0 0 0 0 0 0 0 0 0 0 0 0 0 0 0 0 0 0 0 0 0 0 0 0 0 0 0 0
0 0 0 0 0 0 0 0 0 0 0 0 0 0 0 0 0 0 0 0 0 0 0 0 0 0 0 0 0 0 0 0 0 0 0 0 0 0 0 0 0 0 0 0
0 0 0 0 0 0 0 0 0 0 0 0 0 0 0 0 0 0 0 0 0 0 0 0 0 0 0 0 0 0 0 0 0 0 0 0 0 0 0 0 0 0 0 0
0 0 0 0 0 0 0 0 0 0 0 0 0 0 0 0 0 0 0 0 0 0 0 0 0 0 0 0 0 0 0 0 0 0 0 0 0 0 0 0 0 0 0 0
0 0 0 0 0 0 0 0 0 0 0 0 0 0 0 0 0 0 0 0 0 0 0 0 0 0 0 0 0 0 0 0 0 0 0 0 0 0 0 0 0 0 0 0
0 0 0 0 0 0 0 0 0 0 0 0 0 0 0 0 0 0 0 0 0 0 0 0 0 0 0 0 0 0 0 0 0 0 0 0 0 0 0 0 0 0 0 0
0 0 0 0 0 0 0 0 0 0 0 0 0 0 0 0 0 0 0 0 0 0 0 0 0 0 0 0 0 0 0 0 0 0 0 0 0 0 0 0 0 0 0 0
0 0 0 0 0 0 0 0 0 0 0 0 0 0 0 0 0 0 0 0 0 0 0 0 0 0 0 0 0 0 0 0 0 0 0 0 0 0 0 0 0 0 0 0
0 0 0 0 0 0 0 0 0 0 0 0 0 0 0 0 0 0 0 0 0 0 0 0 0 0 0 0 0 0 0 0 0 0 0 0 0 0 0 0 0 0 0 0
0 0 0 0 0 0 0 0 0 0 0 0 0 0 0 0 0 0 0 0 0 0 0 0 0 0 0 0 0 0 0 0 0 0 0 0 0 0 0 0 0 0 0 0
0 0 0 0 0 0 0 0 0 0 0 0 0 0 0 0 0 0 0 0 0 0 0 0 0 0 0 0 0 0 0 0 0 0 0 0 0 0 0 0 0 0 0 0
0 0 0 0 0 0 0 0 0 0 0 0 0 0 0 0 0 0 0 0 0 0 0 0 0 0 0 0 0 0 0 0 0 0 0 0 0 0 0 0 0 0 0 0
0 0 0 0 0 0 0 0 0 0 0 0 0 0 0 0 0 0 0 0 0 0 0 0 0 0 0 0 0 0 0 0 0 0 0 0 0 0 0 0 0 0 0 0
0 0 0 0 0 0 0 0 0 0 0 0 0 0 0 0 0 0 0 0 0 0 0 0 0 0 0 0 0 0 0 0 0 0 0 0 0 0 0 0 0 0 0 0
Wind_Speed
6 5 9 11 14 11 9 8 8 4 5 5 8 11 9 11 9 9 9 9 9 8 8 6 6 5 4 4 5 5 6 6 6 5 6 7 7 7 7 8 9 9 9 9
5 12 14 9 8 10 10 11 10 7 5 3 6 11 9 12 13 12 11 10 10 10 8 7 7 6 5 5 5 5 5 5 6 6 5 6 7 7 7 6 8 9 9 9
12 5 7 12 10 7 10 11 10 8 3 4 4 9 13 11 12 11 10 9 10 13 12 9 8 7 6 6 5 5 6 7 8 8 8 9 6 6 6 7 6 8 8 9
12 10 5 7 10 9 9 8 10 8 6 5 7 8 8 10 11 12 10 8 9 11 12 11 9 9 7 6 5 6 7 8 8 7 7 8 8 7 5 5 5 7 8 8
10 7 8 10 9 10 4 3 1 4 5 7 6 11 8 7 9 14 14 12 10 11 11 11 10 9 8 6 6 6 7 7 7 7 8 10 10 9 7 6 7 7 6 7
10 3 6 5 3 7 7 4 3 1 3 9 11 14 11 10 13 11 17 15 13 12 11 11 9 9 8 6 6 6 7 7 7 8 9 10 12 11 10 8 7 5 4 5
8 9 4 3 5 4 7 6 2 4 6 10 9 13 10 5 7 9 15 17 14 13 13 12 12 10 9 8 7 7 8 8 8 9 9 9 10 10 10 8 7 6 4 4
10 10 17 12 12 10 11 10 9 8 8 6 5 12 7 3 4 3 8 14 14 14 13 13 12 10 10 9 9 8 8 8 8 9 9 8 9 7 6 7 7 6 5 5
10 8 9 14 8 10 9 10 9 3 1 4 9 8 4 1 1 2 8 14 15 15 14 13 12 11 10 10 9 9 9 9 8 9 9 8 8 7 8 8 7 6 5 5
4 4 4 6 4 5 4 7 5 7 6 8 10 11 10 10 13 10 12 16 16 15 14 14 12 11 10 9 8 9 9 9 9 8 8 8 8 8 8 7 7 7 6 5
6 5 4 3 12 14 9 7 8 7 6 6 8 10 6 14 14 17 18 18 19 19 18 15 13 11 11 9 9 9 9 9 8 8 8 8 8 8 8 7 7 7 6 6
9 4 6 9 7 6 11 12 13 9 8 7 7 10 2 1 7 15 16 15 16 16 15 14 13 12 11 11 10 10 10 9 9 8 8 8 8 8 8 7 7 7 6 6
11 8 4 3 5 4 8 15 18 11 5 9 10 10 1 3 2 7 11 13 14 15 15 15 14 14 14 13 12 11 10 10 9 9 9 9 8 8 8 8 7 7 7 6
9 9 13 15 8 11 10 13 17 16 12 14 17 10 4 4 5 6 10 13 14 16 17 17 16 15 14 14 13 12 11 11 11 10 10 9 9 9 8 8 8 7 7 7
10 11 12 15 12 6 9 14 20 25 26 19 17 18 15 10 12 12 11 12 14 15 17 19 18 17 15 15 14 13 13 13 12 12 11 10 9 9 8 8 8 7 7 6
10 9 8 16 17 13 12 16 21 26 23 26 22 22 9 9 10 10 12 15 16 16 19 19 17 16 17 17 16 15 14 14 13 13 12 10 10 10 10 9 8 8 7 6
10 9 9 13 11 10 22 28 21 20 21 19 29 29 7 9 11 14 15 17 17 17 18 18 19 18 17 17 16 16 13 12 13 12 11 11 11 11 10 10 9 9 8 7
14 11 7 7 9 20 19 9 20 25 24 21 19 12 10 14 12 12 14 17 17 16 16 15 14 13 12 12 12 11 11 12 13 12 11 11 11 11 10 10 10 9 7 7
14 13 9 8 12 12 10 6 11 17 23 21 21 15 7 5 3 4 6 11 13 13 11 10 10 10 11 13 13 12 11 11 12 13 12 12 12 12 11 12 11 9 8 8
9 10 10 10 8 11 7 2 3 9 14 9 13 15 10 10 8 9 6 6 7 8 7 8 8 8 11 11 12 13 12 12 14 14 13 11 11 12 13 13 10 7 7 8
9 10 15 15 11 9 4 2 5 10 10 2 6 9 11 12 8 4 8 7 7 7 7 8 9 8 9 10 12 12 12 14 12 10 10 10 11 11 11 9 7 7 7 6
12 10 10 9 11 11 5 5 8 4 1 1 1 3 6 4 5 5 7 7 8 7 7 8 8 7 7 9 11 11 11 10 8 9 10 10 10 9 8 9 7 7 8 7
9 8 6 8 5 1 3 3 1 1 2 1 1 2 5 5 5 5 6 7 7 7 7 6 8 8 6 7 9 11 9 8 9 9 9 8 8 7 8 9 9 7 7 7
3 1 2 3 1 1 1 1 1 1 2 2 2 3 4 5 5 6 6 6 6 6 6 6 8 7 6 6 7 7 6 8 9 9 9 8 9 8 7 7 8 8 9 8
4 5 4 3 2 1 4 4 3 2 2 3 3 2 3 5 5 5 5 6 5 5 5 6 7 7 7 7 6 6 7 9 9 8 8 8 7 8 8 7 7 9 8 9
5 6 7 5 8 7 6 6 6 5 3 3 3 2 2 4 5 5 5 4 5 5 5 5 5 6 5 6 6 6 6 8 9 8 8 7 6 6 6 6 5 12 11 14
Wind_Direction
181 207 211 210 213 238 277 303 299 294 120 187 230 246 212 187 203 212 195 180 178 159 131 133 132 130 125 120 121 125 123 126 120 112 101 92 82 75 68 61 56 56 58 60
174 232 231 232 231 232 247 262 267 280 148 191 258 262 248 191 202 206 200 188 176 151 145 149 146 143 139 130 122 121 119 107 91 90 91 95 99 85 78 68 60 55 56 58
205 201 219 225 234 241 242 240 245 251 187 199 264 268 239 223 206 203 204 187 172 165 162 160 158 149 139 130 127 121 112 105 104 108 108 109 100 91 75 65 60 51 57 60
232 240 206 209 214 208 245 237 233 252 274 247 199 267 228 220 202 201 200 193 178 163 158 160 158 148 138 130 121 113 111 113 120 127 127 125 116 109 100 95 82 64 57 61
218 197 188 206 209 195 225 23 220 224 251 268 257 274 250 206 209 215 206 198 184 165 159 159 156 143 135 132 124 116 112 111 113 107 107 109 110 111 111 105 95 81 66 62
240 197 193 215 191 191 127 92 61 354 253 256 220 240 261 198 208 209 200 192 181 164 158 152 141 136 135 132 129 125 119 112 109 108 110 119 124 127 125 120 111 97 85 71
233 222 189 119 114 143 147 149 194 230 225 243 194 221 253 205 193 199 184 179 173 165 162 156 152 154 151 150 145 137 131 124 119 117 118 123 125 127 129 129 123 117 105 90
206 220 189 184 184 175 189 180 180 209 229 253 215 231 248 82 38 26 148 160 163 167 167 163 163 162 157 155 152 146 141 135 130 125 124 123 123 122 123 122 121 119 117 111
211 230 169 179 183 166 172 217 218 238 252 280 250 252 236 43 230 198 158 162 171 172 170 166 165 163 159 158 159 152 146 141 137 132 128 125 122 121 121 118 115 116 117 116
227 222 122 111 126 261 219 173 169 201 214 240 254 231 224 203 214 199 187 180 177 174 172 169 168 164 160 160 155 149 148 145 141 137 138 134 130 128 126 123 124 124 123 121
223 198 145 147 191 188 186 200 192 192 198 209 261 252 209 194 194 191 193 186 182 179 177 173 169 163 158 158 157 153 152 148 147 146 140 137 136 133 129 129 133 132 129 131
198 199 204 208 211 220 203 196 188 188 217 216 241 260 336 41 184 182 187 184 181 178 175 171 167 164 164 166 166 163 160 157 156 150 144 143 141 138 138 140 141 139 139 140
158 168 209 241 193 203 221 213 211 216 200 214 226 254 341 26 64 167 175 177 176 174 173 171 171 175 175 175 173 171 168 164 159 153 153 151 152 151 153 152 150 149 149 148
152 176 205 219 195 179 201 210 209 209 225 233 231 235 225 208 206 190 179 177 176 178 179 179 181 182 181 179 177 176 173 167 164 161 163 165 166 164 161 156 156 157 157 159
159 206 224 244 250 209 195 208 211 215 220 227 237 233 229 206 205 201 184 174 178 183 186 187 188 185 181 180 180 179 176 172 170 169 173 175 169 162 158 159 161 161 163 166
182 208 216 242 242 247 245 228 218 222 228 235 248 250 219 214 198 182 178 180 186 190 193 193 190 185 184 184 183 181 179 175 171 175 179 173 167 165 166 165 163 165 169 169
188 197 209 242 231 231 242 234 221 224 224 227 240 248 233 230 202 190 186 187 192 195 195 193 192 190 187 185 181 182 177 167 171 177 176 173 169 170 171 167 167 176 179 176
188 193 213 232 200 230 241 213 208 223 231 225 234 244 212 214 211 197 184 183 192 195 194 194 189 185 176 170 171 167 162 166 174 178 179 175 171 173 170 170 180 184 180 186
195 196 212 217 232 251 269 206 188 207 235 225 229 237 215 176 160 230 191 180 188 187 183 180 176 169 163 166 166 159 165 167 174 183 184 179 174 173 174 183 189 186 183 191
201 200 218 222 220 227 243 203 191 173 244 231 210 217 193 150 193 226 177 148 140 143 148 151 149 146 157 161 155 160 169 173 186 190 185 177 176 179 185 191 187 180 184 191
189 208 224 233 236 244 239 218 130 173 235 258 201 192 176 186 205 165 139 136 135 133 134 135 137 144 153 149 151 164 172 189 191 176 168 172 180 186 186 181 175 170 177 179
184 198 210 217 231 238 174 161 183 201 55 13 140 163 164 143 105 109 124 128 129 126 127 130 132 135 138 147 154 168 188 188 162 159 167 175 178 178 173 170 170 168 171 180
200 199 196 199 211 91 155 178 114 77 98 55 71 112 135 130 132 126 129 133 134 135 135 132 136 136 145 159 164 178 188 161 155 161 170 171 167 168 167 171 171 169 176 189
218 86 133 145 168 168 344 330 341 56 80 65 78 120 134 137 138 133 132 135 137 139 144 139 140 150 168 177 181 185 164 155 158 168 171 166 168 171 169 174 176 180 189 198
170 152 147 148 152 158 273 247 227 179 116 90 77 90 124 132 139 144 145 149 151 147 146 150 162 175 184 178 185 180 162 155 163 169 169 171 176 177 181 191 197 195 201 197
172 168 171 194 184 180 213 222 211 205 200 162 136 125 118 147 152 149 157 164 161 160 155 162 178 188 188 178 185 179 167 162 163 171 176 178 178 180 181 186 210 227 217 223